Location: *
(55.5817°S, 142.4781°W)
Time: 07:42:08
(UTC+00:00)

Meteor 1-22 Rocket - Pass Details

Date: 29 April 2025
Orbit: 786 x 938 km, 81.2° (Epoch: 18 May)

Event Time Altitude Azimuth Distance (km) Brightness Sun altitude
Rises 14:12:35 0° 356° (N) 3,286 7.2 -22.6°
Reaches altitude 10° 14:14:57 10° 357° (N) 2,364 6.4 -22.2°
Maximum altitude 14:20:14 71° 80° (E) 854 4.3 -21.5°
Drops below altitude 10° 14:25:40 10° 162° (SSE) 2,427 6.8 -20.7°
Sets 14:28:06 0° 164° (SSE) 3,381 7.6 -20.4°
